Precipitable_Water
0.63 0.63 0.63 0.62 0.61 0.61 0.61 0.60 0.59 0.59 0.59 0.58 0.58 0.58 0.58 0.56 0.54 0.51 0.49 0.48 0.49 0.48 0.47 0.47 0.48 0.48 0.47 0.47 0.46 0.44 0.43 0.35 0.28 0.24 0.24 0.23 0.31 0.39 0.38 0.40 0.41 0.38 0.34 0.26 0.21 0.23 0.23 0.25 0.24 0.30 0.30 0.31 0.28 0.21 0.25 0.24 0.24 0.22 0.17 0.15 0.13 0.14 0.13 0.15 0.15 0.16 0.18 0.16 0.19 0.21 0.22 0.22 0.20 0.21 0.24 0.28 0.29 0.24 0.44 0.47 0.52 0.68 0.76 0.83 0.93 1.05 1.22 1.34
0.64 0.64 0.64 0.63 0.62 0.61 0.61 0.60 0.60 0.59 0.58 0.58 0.57 0.57 0.57 0.55 0.53 0.51 0.49 0.49 0.49 0.49 0.47 0.47 0.46 0.46 0.47 0.45 0.45 0.44 0.40 0.34 0.26 0.26 0.22 0.24 0.34 0.42 0.40 0.39 0.42 0.39 0.34 0.23 0.18 0.21 0.25 0.24 0.25 0.28 0.27 0.22 0.26 0.20 0.23 0.20 0.23 0.18 0.16 0.16 0.13 0.14 0.13 0.16 0.16 0.18 0.19 0.18 0.20 0.20 0.22 0.22 0.22 0.23 0.24 0.20 0.26 0.29 0.48 0.55 0.52 0.64 0.73 0.90 0.92 0.97 1.06 1.16
0.65 0.65 0.65 0.64 0.63 0.62 0.62 0.62 0.62 0.61 0.59 0.58 0.56 0.55 0.55 0.55 0.52 0.51 0.50 0.48 0.48 0.47 0.47 0.47 0.46 0.46 0.46 0.45 0.43 0.44 0.40 0.30 0.29 0.21 0.29 0.29 0.30 0.39 0.46 0.43 0.38 0.36 0.29 0.21 0.19 0.24 0.27 0.29 0.30 0.25 0.24 0.20 0.24 0.20 0.20 0.18 0.19 0.19 0.17 0.14 0.14 0.17 0.16 0.16 0.17 0.19 0.19 0.19 0.20 0.20 0.20 0.20 0.22 0.23 0.24 0.22 0.24 0.26 0.35 0.49 0.65 0.62 0.66 0.74 0.82 0.86 0.92 1.00
0.65 0.65 0.64 0.64 0.64 0.63 0.64 0.63 0.62 0.61 0.60 0.59 0.56 0.55 0.54 0.53 0.53 0.51 0.50 0.48 0.47 0.47 0.47 0.47 0.46 0.45 0.44 0.43 0.44 0.43 0.44 0.32 0.34 0.44 0.42 0.42 0.35 0.35 0.38 0.36 0.33 0.30 0.25 0.22 0.21 0.26 0.30 0.31 0.32 0.28 0.23 0.20 0.21 0.21 0.19 0.19 0.16 0.19 0.18 0.15 0.15 0.17 0.16 0.18 0.19 0.20 0.19 0.19 0.19 0.20 0.20 0.18 0.21 0.22 0.23 0.22 0.20 0.21 0.20 0.59 0.58 0.70 0.69 0.80 0.83 0.81 0.87 0.94
0.64 0.64 0.64 0.64 0.64 0.64 0.64 0.63 0.63 0.62 0.61 0.59 0.57 0.55 0.53 0.52 0.52 0.51 0.50 0.48 0.47 0.46 0.46 0.46 0.44 0.44 0.42 0.42 0.42 0.47 0.37 0.30 0.38 0.45 0.54 0.49 0.46 0.38 0.33 0.30 0.29 0.27 0.22 0.21 0.22 0.26 0.27 0.29 0.30 0.27 0.24 0.19 0.20 0.19 0.18 0.19 0.19 0.19 0.19 0.20 0.19 0.18 0.15 0.18 0.19 0.19 0.19 0.19 0.18 0.19 0.18 0.18 0.21 0.21 0.22 0.20 0.16 0.19 0.35 0.53 0.64 0.75 0.82 0.86 0.90 0.90 0.91 0.95
0.61 0.63 0.64 0.64 0.64 0.65 0.64 0.63 0.63 0.63 0.62 0.61 0.59 0.57 0.53 0.51 0.50 0.50 0.49 0.49 0.47 0.46 0.45 0.44 0.44 0.41 0.41 0.41 0.42 0.47 0.31 0.16 0.47 0.52 0.55 0.52 0.42 0.36 0.33 0.31 0.29 0.25 0.22 0.20 0.23 0.28 0.30 0.30 0.30 0.25 0.21 0.19 0.17 0.16 0.17 0.18 0.19 0.15 0.17 0.18 0.19 0.19 0.16 0.18 0.17 0.18 0.18 0.17 0.17 0.17 0.18 0.18 0.19 0.19 0.20 0.20 0.19 0.46 0.47 0.59 0.79 0.86 0.95 0.98 1.02 1.00 1.01 1.04
0.56 0.60 0.63 0.64 0.63 0.64 0.65 0.64 0.64 0.63 0.62 0.62 0.60 0.59 0.56 0.51 0.50 0.49 0.49 0.47 0.47 0.45 0.44 0.43 0.42 0.40 0.40 0.39 0.48 0.41 0.30 0.31 0.47 0.52 0.51 0.47 0.42 0.36 0.34 0.32 0.25 0.21 0.21 0.21 0.27 0.29 0.30 0.29 0.26 0.22 0.19 0.16 0.16 0.16 0.17 0.17 0.19 0.17 0.16 0.17 0.17 0.18 0.17 0.18 0.17 0.18 0.17 0.16 0.16 0.17 0.18 0.17 0.17 0.17 0.20 0.18 0.30 0.51 0.67 0.65 0.84 0.99 1.08 1.07 0.98 1.07 1.05 1.06
0.52 0.55 0.59 0.62 0.63 0.63 0.64 0.63 0.63 0.63 0.62 0.62 0.61 0.58 0.55 0.52 0.49 0.49 0.48 0.47 0.47 0.46 0.44 0.43 0.42 0.40 0.40 0.34 0.32 0.30 0.33 0.30 0.50 0.53 0.48 0.45 0.40 0.34 0.33 0.29 0.21 0.19 0.21 0.26 0.28 0.28 0.28 0.24 0.18 0.19 0.16 0.14 0.14 0.14 0.16 0.16 0.17 0.16 0.15 0.16 0.17 0.17 0.17 0.17 0.17 0.17 0.16 0.16 0.16 0.16 0.15 0.14 0.14 0.15 0.17 0.23 0.56 0.69 0.81 0.72 0.79 0.91 0.98 1.06 1.04 1.04 1.07 1.10
0.48 0.50 0.54 0.57 0.61 0.62 0.63 0.63 0.63 0.63 0.63 0.62 0.60 0.57 0.55 0.53 0.49 0.48 0.47 0.47 0.47 0.46 0.43 0.43 0.40 0.41 0.42 0.38 0.28 0.28 0.30 0.44 0.58 0.54 0.49 0.42 0.34 0.30 0.24 0.20 0.21 0.19 0.22 0.29 0.32 0.31 0.30 0.23 0.17 0.17 0.14 0.15 0.16 0.15 0.15 0.14 0.13 0.16 0.17 0.18 0.17 0.16 0.17 0.17 0.16 0.16 0.16 0.16 0.16 0.15 0.14 0.14 0.14 0.16 0.15 0.19 0.65 0.60 0.84 0.81 0.80 0.89 0.97 1.01 1.05 1.08 1.12 1.12
0.46 0.47 0.48 0.52 0.56 0.59 0.61 0.62 0.62 0.63 0.63 0.61 0.60 0.58 0.57 0.56 0.52 0.49 0.48 0.47 0.46 0.45 0.43 0.41 0.42 0.40 0.36 0.34 0.36 0.29 0.43 0.51 0.55 0.49 0.43 0.36 0.29 0.23 0.20 0.19 0.19 0.21 0.22 0.30 0.33 0.31 0.27 0.25 0.19 0.19 0.18 0.16 0.17 0.16 0.17 0.17 0.16 0.17 0.17 0.17 0.16 0.16 0.15 0.16 0.15 0.14 0.15 0.15 0.16 0.15 0.14 0.14 0.17 0.17 0.16 0.27 0.58 0.71 0.72 0.73 0.79 0.84 0.87 0.94 1.01 1.08 1.13 1.11
0.45 0.45 0.45 0.46 0.50 0.54 0.57 0.60 0.61 0.63 0.63 0.61 0.59 0.58 0.57 0.57 0.56 0.52 0.48 0.46 0.45 0.45 0.43 0.40 0.43 0.39 0.31 0.40 0.29 0.30 0.47 0.43 0.46 0.40 0.38 0.32 0.21 0.17 0.17 0.21 0.21 0.23 0.28 0.29 0.30 0.31 0.30 0.25 0.23 0.22 0.24 0.19 0.20 0.17 0.17 0.18 0.19 0.17 0.16 0.16 0.16 0.16 0.16 0.15 0.15 0.14 0.15 0.15 0.16 0.16 0.16 0.16 0.18 0.18 0.18 0.39 0.57 0.65 0.61 0.63 0.72 0.83 0.87 0.92 0.99 1.06 1.11 1.11
0.45 0.44 0.43 0.43 0.45 0.48 0.52 0.55 0.59 0.61 0.61 0.60 0.59 0.57 0.57 0.57 0.58 0.56 0.52 0.47 0.44 0.43 0.41 0.40 0.39 0.42 0.41 0.36 0.31 0.34 0.50 0.35 0.34 0.32 0.31 0.24 0.19 0.18 0.23 0.25 0.26 0.30 0.31 0.28 0.29 0.30 0.28 0.26 0.23 0.24 0.20 0.24 0.17 0.19 0.19 0.21 0.17 0.16 0.16 0.13 0.14 0.15 0.15 0.16 0.15 0.15 0.15 0.15 0.18 0.18 0.17 0.15 0.17 0.17 0.27 0.42 0.55 0.58 0.60 0.64 0.73 0.83 0.83 0.89 0.91 0.95 1.01 1.05
0.43 0.42 0.42 0.42 0.42 0.44 0.48 0.51 0.54 0.56 0.59 0.59 0.58 0.58 0.57 0.56 0.57 0.58 0.56 0.50 0.45 0.43 0.42 0.42 0.42 0.45 0.38 0.24 0.31 0.46 0.46 0.48 0.33 0.33 0.31 0.27 0.22 0.26 0.31 0.35 0.32 0.33 0.32 0.30 0.31 0.26 0.23 0.23 0.23 0.21 0.25 0.23 0.21 0.17 0.23 0.22 0.20 0.17 0.15 0.14 0.13 0.12 0.11 0.13 0.16 0.17 0.15 0.15 0.17 0.18 0.12 0.13 0.16 0.18 0.43 0.51 0.54 0.55 0.57 0.63 0.69 0.81 0.81 0.86 0.90 0.91 0.96 1.02
0.42 0.42 0.42 0.41 0.41 0.41 0.44 0.48 0.50 0.52 0.54 0.55 0.56 0.58 0.57 0.55 0.55 0.58 0.57 0.53 0.51 0.43 0.42 0.43 0.45 0.43 0.39 0.26 0.44 0.52 0.46 0.48 0.36 0.33 0.29 0.28 0.23 0.24 0.30 0.33 0.37 0.38 0.36 0.32 0.33 0.33 0.28 0.25 0.23 0.23 0.25 0.20 0.19 0.25 0.22 0.20 0.21 0.16 0.16 0.15 0.12 0.10 0.12 0.14 0.16 0.17 0.16 0.18 0.19 0.19 0.13 0.14 0.17 0.22 0.45 0.49 0.52 0.51 0.53 0.59 0.67 0.74 0.81 0.84 0.87 0.91 0.91 0.97
0.42 0.41 0.41 0.40 0.40 0.39 0.40 0.43 0.46 0.49 0.50 0.51 0.51 0.54 0.54 0.52 0.53 0.59 0.60 0.58 0.54 0.51 0.47 0.49 0.47 0.44 0.33 0.33 0.52 0.55 0.47 0.41 0.30 0.25 0.29 0.27 0.24 0.24 0.26 0.30 0.30 0.31 0.32 0.35 0.35 0.32 0.28 0.26 0.23 0.20 0.19 0.23 0.23 0.21 0.18 0.17 0.18 0.18 0.15 0.11 0.13 0.14 0.15 0.16 0.16 0.17 0.16 0.18 0.19 0.17 0.14 0.15 0.18 0.20 0.46 0.48 0.48 0.51 0.51 0.58 0.68 0.71 0.80 0.82 0.84 0.88 0.95 0.97
0.41 0.40 0.39 0.39 0.39 0.39 0.38 0.39 0.42 0.45 0.47 0.48 0.48 0.48 0.50 0.51 0.52 0.57 0.62 0.59 0.55 0.52 0.50 0.42 0.55 0.46 0.35 0.28 0.47 0.56 0.43 0.32 0.28 0.26 0.30 0.30 0.28 0.26 0.28 0.23 0.25 0.27 0.30 0.31 0.33 0.27 0.26 0.24 0.18 0.18 0.20 0.21 0.20 0.18 0.16 0.15 0.16 0.17 0.16 0.16 0.14 0.15 0.15 0.15 0.17 0.18 0.20 0.19 0.18 0.17 0.15 0.16 0.19 0.22 0.46 0.45 0.42 0.48 0.51 0.51 0.59 0.67 0.75 0.79 0.82 0.88 0.93 0.98
0.39 0.39 0.39 0.38 0.38 0.38 0.38 0.38 0.38 0.40 0.43 0.45 0.46 0.44 0.47 0.52 0.57 0.60 0.62 0.61 0.54 0.54 0.46 0.37 0.50 0.53 0.22 0.47 0.53 0.41 0.32 0.31 0.32 0.30 0.28 0.29 0.28 0.27 0.23 0.19 0.21 0.21 0.23 0.24 0.24 0.22 0.22 0.17 0.20 0.19 0.21 0.18 0.19 0.19 0.16 0.15 0.16 0.17 0.18 0.16 0.18 0.15 0.16 0.15 0.17 0.20 0.21 0.21 0.18 0.20 0.17 0.18 0.21 0.28 0.38 0.42 0.48 0.50 0.52 0.52 0.57 0.66 0.70 0.76 0.80 0.81 0.84 0.87
0.39 0.38 0.38 0.38 0.38 0.38 0.38 0.38 0.37 0.37 0.40 0.43 0.40 0.42 0.49 0.60 0.65 0.59 0.58 0.55 0.57 0.53 0.46 0.52 0.55 0.39 0.30 0.50 0.39 0.38 0.39 0.32 0.32 0.31 0.27 0.28 0.28 0.26 0.23 0.18 0.21 0.22 0.22 0.20 0.23 0.21 0.21 0.17 0.18 0.16 0.18 0.18 0.19 0.17 0.16 0.14 0.17 0.25 0.26 0.17 0.19 0.23 0.21 0.18 0.17 0.20 0.22 0.22 0.20 0.20 0.18 0.20 0.21 0.29 0.33 0.35 0.39 0.42 0.49 0.54 0.59 0.64 0.68 0.71 0.75 0.76 0.78 0.80
0.39 0.38 0.38 0.38 0.39 0.39 0.38 0.39 0.37 0.38 0.40 0.40 0.45 0.61 0.70 0.76 0.82 0.79 0.57 0.51 0.38 0.27 0.18 0.23 0.28 0.23 0.22 0.38 0.46 0.44 0.44 0.36 0.38 0.32 0.25 0.26 0.27 0.28 0.25 0.25 0.24 0.22 0.19 0.19 0.19 0.20 0.21 0.19 0.20 0.18 0.16 0.18 0.20 0.20 0.19 0.19 0.25 0.28 0.28 0.24 0.25 0.23 0.21 0.21 0.22 0.23 0.24 0.21 0.20 0.20 0.18 0.19 0.21 0.23 0.27 0.31 0.41 0.39 0.43 0.57 0.60 0.60 0.63 0.65 0.66 0.73 0.75 0.77
0.39 0.38 0.38 0.39 0.39 0.40 0.39 0.38 0.39 0.40 0.43 0.40 0.51 0.61 0.66 0.64 0.66 0.65 0.67 0.57 0.39 0.30 0.19 0.38 0.33 0.32 0.36 0.36 0.45 0.49 0.47 0.42 0.31 0.30 0.29 0.27 0.27 0.27 0.26 0.24 0.23 0.22 0.20 0.19 0.22 0.24 0.24 0.18 0.16 0.19 0.21 0.24 0.28 0.32 0.31 0.31 0.30 0.30 0.30 0.26 0.24 0.25 0.23 0.25 0.25 0.26 0.27 0.23 0.23 0.23 0.20 0.20 0.21 0.22 0.24 0.27 0.32 0.38 0.41 0.49 0.56 0.59 0.61 0.62 0.64 0.68 0.73 0.75
0.41 0.39 0.38 0.39 0.40 0.40 0.40 0.40 0.44 0.46 0.48 0.51 0.54 0.53 0.43 0.43 0.35 0.33 0.47 0.48 0.50 0.45 0.35 0.36 0.38 0.35 0.36 0.40 0.45 0.44 0.37 0.38 0.35 0.31 0.31 0.32 0.28 0.25 0.23 0.22 0.21 0.19 0.20 0.22 0.21 0.27 0.24 0.18 0.19 0.21 0.22 0.29 0.35 0.35 0.35 0.32 0.30 0.29 0.27 0.26 0.24 0.24 0.23 0.27 0.27 0.28 0.27 0.25 0.25 0.27 0.26 0.23 0.24 0.27 0.30 0.31 0.29 0.38 0.42 0.48 0.54 0.56 0.58 0.58 0.58 0.62 0.68 0.76
0.39 0.40 0.40 0.40 0.42 0.43 0.46 0.47 0.47 0.49 0.50 0.50 0.52 0.46 0.48 0.49 0.50 0.51 0.44 0.31 0.39 0.42 0.43 0.42 0.41 0.37 0.44 0.43 0.46 0.47 0.42 0.32 0.29 0.30 0.34 0.31 0.26 0.19 0.22 0.21 0.20 0.19 0.24 0.24 0.24 0.23 0.20 0.16 0.21 0.25 0.27 0.29 0.34 0.33 0.32 0.29 0.27 0.26 0.25 0.25 0.25 0.24 0.24 0.28 0.29 0.30 0.30 0.27 0.25 0.27 0.25 0.26 0.27 0.28 0.33 0.31 0.32 0.41 0.46 0.43 0.46 0.50 0.58 0.58 0.56 0.57 0.66 0.74
0.37 0.39 0.40 0.40 0.43 0.46 0.48 0.51 0.50 0.50 0.47 0.46 0.45 0.41 0.44 0.53 0.58 0.56 0.50 0.38 0.28 0.34 0.33 0.33 0.37 0.37 0.36 0.44 0.48 0.47 0.35 0.29 0.25 0.29 0.30 0.28 0.26 0.22 0.23 0.19 0.19 0.21 0.23 0.23 0.20 0.20 0.19 0.24 0.25 0.29 0.30 0.29 0.30 0.29 0.27 0.27 0.26 0.24 0.24 0.22 0.22 0.24 0.21 0.20 0.28 0.33 0.34 0.30 0.27 0.28 0.25 0.25 0.27 0.27 0.29 0.32 0.31 0.36 0.46 0.51 0.50 0.49 0.49 0.54 0.56 0.58 0.61 0.66
0.37 0.37 0.38 0.38 0.42 0.45 0.49 0.49 0.51 0.43 0.39 0.42 0.50 0.47 0.55 0.58 0.58 0.58 0.44 0.30 0.24 0.27 0.33 0.36 0.34 0.34 0.35 0.35 0.43 0.40 0.34 0.32 0.30 0.29 0.37 0.29 0.23 0.27 0.23 0.21 0.19 0.21 0.20 0.22 0.22 0.21 0.19 0.24 0.33 0.33 0.32 0.30 0.25 0.25 0.23 0.22 0.21 0.22 0.22 0.22 0.22 0.20 0.21 0.23 0.29 0.33 0.33 0.34 0.31 0.28 0.25 0.23 0.25 0.25 0.27 0.30 0.32 0.33 0.35 0.38 0.49 0.54 0.55 0.60 0.65 0.66 0.64 0.61
0.38 0.36 0.38 0.38 0.37 0.42 0.45 0.49 0.42 0.41 0.57 0.59 0.56 0.61 0.58 0.61 0.66 0.58 0.42 0.33 0.32 0.26 0.38 0.39 0.46 0.42 0.36 0.41 0.45 0.37 0.38 0.34 0.31 0.38 0.37 0.36 0.30 0.26 0.23 0.25 0.23 0.20 0.20 0.22 0.22 0.21 0.22 0.27 0.30 0.30 0.30 0.29 0.28 0.25 0.23 0.20 0.16 0.17 0.22 0.24 0.23 0.21 0.22 0.24 0.31 0.30 0.28 0.26 0.30 0.27 0.22 0.21 0.24 0.26 0.26 0.29 0.28 0.29 0.33 0.32 0.33 0.34 0.38 0.47 0.61 0.63 0.67 0.70
0.38 0.38 0.37 0.39 0.39 0.37 0.43 0.29 0.44 0.57 0.56 0.51 0.55 0.66 0.70 0.69 0.63 0.61 0.44 0.30 0.18 0.24 0.42 0.35 0.49 0.39 0.41 0.33 0.36 0.36 0.38 0.28 0.34 0.39 0.39 0.38 0.38 0.32 0.27 0.24 0.24 0.21 0.24 0.24 0.25 0.24 0.26 0.31 0.30 0.28 0.26 0.26 0.26 0.25 0.25 0.24 0.17 0.16 0.19 0.26 0.28 0.25 0.24 0.26 0.26 0.26 0.23 0.20 0.30 0.33 0.23 0.23 0.28 0.23 0.24 0.26 0.25 0.28 0.32 0.31 0.33 0.37 0.40 0.45 0.55 0.62 0.66 0.71
0.39 0.39 0.38 0.39 0.39 0.41 0.24 0.25 0.56 0.50 0.44 0.46 0.56 0.58 0.62 0.57 0.60 0.55 0.38 0.30 0.21 0.34 0.30 0.36 0.38 0.33 0.36 0.35 0.35 0.38 0.23 0.24 0.38 0.43 0.40 0.41 0.36 0.36 0.25 0.25 0.25 0.24 0.25 0.25 0.21 0.21 0.27 0.30 0.30 0.28 0.25 0.24 0.23 0.21 0.24 0.23 0.19 0.16 0.23 0.26 0.27 0.26 0.24 0.26 0.26 0.26 0.25 0.28 0.30 0.32 0.29 0.24 0.23 0.24 0.27 0.30 0.31 0.31 0.32 0.34 0.36 0.37 0.44 0.49 0.54 0.63 0.68 0.71
0.38 0.38 0.38 0.38 0.41 0.40 0.27 0.29 0.29 0.34 0.41 0.49 0.53 0.55 0.62 0.56 0.55 0.58 0.40 0.14 0.15 0.40 0.35 0.34 0.36 0.43 0.33 0.33 0.36 0.32 0.28 0.39 0.33 0.38 0.42 0.42 0.40 0.32 0.27 0.25 0.26 0.27 0.29 0.24 0.18 0.25 0.29 0.30 0.29 0.27 0.25 0.24 0.23 0.24 0.24 0.25 0.21 0.21 0.28 0.28 0.26 0.28 0.27 0.27 0.27 0.26 0.27 0.24 0.21 0.26 0.31 0.23 0.22 0.26 0.29 0.30 0.27 0.28 0.31 0.34 0.36 0.38 0.43 0.54 0.56 0.60 0.63 0.66
0.35 0.37 0.38 0.38 0.40 0.42 0.44 0.35 0.31 0.30 0.39 0.46 0.50 0.62 0.57 0.54 0.46 0.39 0.32 0.17 0.39 0.38 0.51 0.35 0.46 0.39 0.36 0.39 0.36 0.35 0.36 0.36 0.31 0.36 0.40 0.39 0.37 0.32 0.24 0.27 0.29 0.29 0.30 0.28 0.22 0.24 0.27 0.26 0.29 0.29 0.26 0.24 0.25 0.25 0.25 0.27 0.24 0.29 0.31 0.34 0.32 0.30 0.29 0.29 0.28 0.27 0.27 0.24 0.21 0.23 0.27 0.21 0.20 0.25 0.27 0.30 0.28 0.27 0.31 0.34 0.37 0.40 0.42 0.57 0.55 0.58 0.65 0.71
0.34 0.34 0.36 0.36 0.37 0.41 0.46 0.56 0.50 0.54 0.60 0.63 0.58 0.52 0.46 0.34 0.38 0.29 0.27 0.14 0.41 0.32 0.36 0.37 0.35 0.32 0.33 0.33 0.35 0.36 0.31 0.33 0.34 0.37 0.38 0.36 0.38 0.36 0.31 0.34 0.30 0.28 0.27 0.28 0.27 0.26 0.26 0.30 0.30 0.27 0.26 0.27 0.25 0.27 0.29 0.29 0.28 0.31 0.30 0.30 0.30 0.29 0.30 0.31 0.29 0.27 0.26 0.22 0.25 0.30 0.30 0.27 0.22 0.26 0.28 0.27 0.30 0.30 0.33 0.37 0.41 0.42 0.45 0.49 0.59 0.59 0.65 0.68
0.34 0.33 0.33 0.36 0.28 0.39 0.46 0.52 0.56 0.67 0.69 0.65 0.62 0.49 0.34 0.36 0.21 0.24 0.17 0.25 0.36 0.37 0.39 0.37 0.34 0.38 0.34 0.31 0.29 0.31 0.31 0.33 0.33 0.36 0.35 0.38 0.36 0.33 0.31 0.28 0.30 0.26 0.26 0.26 0.25 0.26 0.24 0.26 0.25 0.28 0.29 0.28 0.27 0.25 0.28 0.27 0.30 0.29 0.28 0.27 0.27 0.25 0.27 0.26 0.27 0.29 0.22 0.19 0.25 0.30 0.30 0.30 0.21 0.24 0.30 0.34 0.37 0.36 0.34 0.35 0.40 0.42 0.45 0.50 0.57 0.58 0.61 0.65
0.32 0.31 0.32 0.32 0.31 0.37 0.26 0.42 0.61 0.65 0.68 0.70 0.52 0.30 0.34 0.17 0.29 0.15 0.15 0.47 0.26 0.36 0.35 0.34 0.37 0.37 0.36 0.36 0.33 0.35 0.30 0.32 0.34 0.33 0.31 0.32 0.30 0.29 0.28 0.23 0.26 0.20 0.20 0.22 0.22 0.26 0.24 0.24 0.27 0.28 0.30 0.28 0.24 0.21 0.24 0.24 0.25 0.25 0.23 0.21 0.17 0.19 0.22 0.19 0.23 0.20 0.20 0.20 0.29 0.32 0.30 0.25 0.24 0.28 0.33 0.34 0.36 0.39 0.39 0.41 0.41 0.43 0.47 0.49 0.49 0.54 0.66 0.69
0.30 0.29 0.31 0.30 0.33 0.30 0.32 0.36 0.45 0.55 0.67 0.58 0.39 0.43 0.28 0.21 0.15 0.22 0.19 0.22 0.24 0.33 0.36 0.39 0.36 0.34 0.35 0.33 0.30 0.32 0.35 0.29 0.33 0.34 0.33 0.32 0.29 0.29 0.30 0.27 0.28 0.25 0.20 0.24 0.22 0.24 0.25 0.28 0.29 0.30 0.31 0.29 0.26 0.20 0.20 0.20 0.20 0.21 0.21 0.21 0.18 0.15 0.16 0.16 0.20 0.22 0.23 0.27 0.32 0.30 0.33 0.26 0.31 0.33 0.37 0.35 0.37 0.40 0.41 0.45 0.47 0.47 0.47 0.49 0.54 0.59 0.61 0.63
0.26 0.27 0.25 0.27 0.29 0.28 0.29 0.39 0.45 0.53 0.51 0.48 0.36 0.29 0.26 0.18 0.17 0.27 0.24 0.32 0.33 0.39 0.39 0.37 0.34 0.34 0.32 0.29 0.30 0.31 0.28 0.31 0.32 0.33 0.33 0.29 0.29 0.27 0.29 0.30 0.30 0.28 0.25 0.26 0.23 0.25 0.21 0.23 0.28 0.29 0.27 0.30 0.28 0.25 0.22 0.21 0.21 0.21 0.24 0.22 0.21 0.20 0.18 0.15 0.18 0.17 0.19 0.22 0.26 0.33 0.26 0.25 0.27 0.33 0.39 0.40 0.41 0.45 0.46 0.46 0.49 0.51 0.51 0.53 0.59 0.59 0.62 0.63
0.25 0.23 0.30 0.37 0.36 0.31 0.30 0.33 0.42 0.49 0.50 0.45 0.30 0.23 0.17 0.17 0.21 0.17 0.18 0.22 0.32 0.33 0.29 0.37 0.35 0.33 0.30 0.30 0.31 0.33 0.31 0.31 0.33 0.32 0.31 0.30 0.28 0.28 0.28 0.30 0.33 0.31 0.30 0.24 0.28 0.26 0.25 0.25 0.31 0.35 0.35 0.30 0.27 0.25 0.23 0.23 0.22 0.23 0.24 0.25 0.23 0.22 0.26 0.20 0.23 0.23 0.23 0.23 0.23 0.26 0.25 0.31 0.32 0.42 0.44 0.45 0.43 0.43 0.46 0.47 0.49 0.49 0.55 0.55 0.56 0.57 0.61 0.63
0.22 0.19 0.26 0.25 0.30 0.32 0.36 0.34 0.39 0.48 0.44 0.35 0.24 0.21 0.20 0.23 0.20 0.27 0.29 0.32 0.28 0.24 0.27 0.29 0.31 0.30 0.30 0.28 0.30 0.30 0.34 0.29 0.34 0.31 0.31 0.31 0.31 0.28 0.30 0.31 0.31 0.33 0.30 0.24 0.28 0.23 0.24 0.20 0.25 0.31 0.31 0.31 0.29 0.27 0.24 0.25 0.17 0.23 0.22 0.20 0.23 0.31 0.27 0.25 0.25 0.27 0.27 0.23 0.21 0.28 0.28 0.31 0.40 0.39 0.40 0.39 0.41 0.42 0.44 0.45 0.48 0.51 0.54 0.55 0.57 0.60 0.63 0.66
0.18 0.20 0.14 0.21 0.26 0.35 0.41 0.39 0.39 0.40 0.42 0.34 0.26 0.20 0.25 0.26 0.27 0.24 0.32 0.31 0.34 0.31 0.26 0.24 0.28 0.29 0.28 0.27 0.28 0.27 0.28 0.29 0.29 0.30 0.29 0.31 0.27 0.28 0.29 0.30 0.31 0.31 0.32 0.30 0.27 0.27 0.21 0.20 0.25 0.25 0.25 0.28 0.28 0.27 0.27 0.25 0.24 0.21 0.18 0.21 0.23 0.26 0.26 0.23 0.19 0.23 0.23 0.20 0.23 0.25 0.23 0.25 0.26 0.24 0.37 0.37 0.36 0.37 0.39 0.41 0.47 0.50 0.52 0.53 0.58 0.60 0.63 0.65
0.20 0.19 0.18 0.15 0.13 0.27 0.58 0.58 0.50 0.47 0.43 0.33 0.23 0.22 0.26 0.22 0.28 0.27 0.36 0.38 0.36 0.31 0.25 0.24 0.27 0.33 0.29 0.29 0.27 0.27 0.29 0.25 0.27 0.28 0.26 0.30 0.28 0.33 0.28 0.27 0.30 0.30 0.33 0.34 0.27 0.27 0.26 0.20 0.23 0.25 0.26 0.25 0.27 0.27 0.25 0.25 0.25 0.20 0.17 0.23 0.18 0.18 0.16 0.23 0.19 0.16 0.16 0.17 0.19 0.21 0.24 0.25 0.27 0.27 0.31 0.32 0.34 0.35 0.37 0.43 0.44 0.46 0.49 0.52 0.54 0.57 0.59 0.59
0.26 0.30 0.14 0.14 0.17 0.16 0.38 0.64 0.60 0.50 0.36 0.26 0.23 0.21 0.23 0.21 0.20 0.22 0.26 0.31 0.32 0.29 0.25 0.26 0.24 0.26 0.26 0.25 0.28 0.29 0.28 0.26 0.28 0.27 0.24 0.26 0.23 0.36 0.30 0.30 0.29 0.31 0.34 0.33 0.27 0.27 0.26 0.19 0.21 0.26 0.25 0.27 0.25 0.24 0.19 0.23 0.27 0.26 0.21 0.18 0.19 0.17 0.16 0.15 0.18 0.21 0.20 0.17 0.17 0.19 0.21 0.20 0.29 0.32 0.36 0.34 0.38 0.39 0.42 0.44 0.46 0.47 0.50 0.54 0.56 0.58 0.56 0.56
0.22 0.24 0.19 0.37 0.42 0.37 0.35 0.57 0.50 0.37 0.29 0.20 0.22 0.22 0.24 0.19 0.21 0.24 0.28 0.30 0.30 0.26 0.23 0.25 0.27 0.22 0.22 0.23 0.25 0.25 0.29 0.27 0.27 0.29 0.28 0.34 0.26 0.38 0.34 0.34 0.30 0.33 0.34 0.34 0.30 0.29 0.23 0.25 0.17 0.24 0.28 0.26 0.20 0.21 0.20 0.21 0.20 0.22 0.23 0.21 0.21 0.22 0.28 0.20 0.21 0.17 0.16 0.16 0.17 0.18 0.18 0.25 0.32 0.39 0.37 0.38 0.38 0.41 0.42 0.44 0.52 0.52 0.54 0.57 0.61 0.61 0.59 0.58
0.23 0.17 0.21 0.48 0.56 0.50 0.51 0.50 0.40 0.28 0.23 0.25 0.26 0.23 0.24 0.23 0.24 0.25 0.30 0.33 0.31 0.32 0.28 0.27 0.27 0.23 0.22 0.22 0.24 0.29 0.24 0.27 0.29 0.29 0.29 0.28 0.28 0.27 0.32 0.30 0.33 0.32 0.34 0.32 0.30 0.31 0.24 0.23 0.18 0.20 0.21 0.19 0.18 0.24 0.23 0.23 0.24 0.23 0.24 0.23 0.25 0.23 0.22 0.18 0.17 0.23 0.22 0.18 0.18 0.18 0.19 0.26 0.32 0.41 0.39 0.41 0.41 0.43 0.44 0.48 0.53 0.55 0.56 0.59 0.61 0.62 0.61 0.59
0.21 0.14 0.20 0.51 0.64 0.56 0.47 0.35 0.29 0.28 0.23 0.19 0.17 0.21 0.20 0.23 0.19 0.17 0.22 0.30 0.33 0.33 0.35 0.29 0.29 0.24 0.22 0.22 0.25 0.28 0.27 0.25 0.26 0.28 0.30 0.28 0.33 0.28 0.32 0.33 0.31 0.32 0.30 0.28 0.27 0.32 0.29 0.26 0.22 0.19 0.19 0.19 0.20 0.23 0.25 0.24 0.23 0.21 0.21 0.23 0.26 0.27 0.24 0.21 0.17 0.22 0.24 0.22 0.24 0.24 0.20 0.23 0.38 0.41 0.41 0.42 0.43 0.47 0.46 0.47 0.52 0.55 0.55 0.56 0.60 0.63 0.62 0.60
0.30 0.25 0.52 0.59 0.61 0.53 0.42 0.28 0.29 0.27 0.23 0.22 0.23 0.22 0.26 0.27 0.26 0.27 0.25 0.27 0.27 0.33 0.31 0.30 0.26 0.22 0.23 0.23 0.23 0.24 0.26 0.24 0.26 0.26 0.27 0.28 0.30 0.33 0.34 0.32 0.33 0.31 0.30 0.29 0.28 0.32 0.28 0.21 0.18 0.17 0.18 0.19 0.19 0.20 0.20 0.20 0.20 0.17 0.21 0.21 0.22 0.22 0.22 0.20 0.21 0.24 0.22 0.23 0.20 0.22 0.19 0.24 0.36 0.43 0.43 0.42 0.44 0.49 0.50 0.53 0.53 0.55 0.56 0.57 0.57 0.58 0.60 0.59
0.30 0.31 0.40 0.61 0.62 0.55 0.39 0.25 0.23 0.23 0.22 0.24 0.25 0.23 0.27 0.27 0.27 0.26 0.25 0.26 0.25 0.27 0.29 0.29 0.27 0.25 0.22 0.26 0.25 0.23 0.27 0.21 0.25 0.26 0.25 0.28 0.30 0.33 0.33 0.33 0.34 0.31 0.29 0.35 0.28 0.34 0.23 0.23 0.18 0.14 0.11 0.12 0.13 0.13 0.12 0.15 0.18 0.18 0.17 0.20 0.21 0.20 0.20 0.22 0.21 0.23 0.17 0.21 0.19 0.17 0.15 0.22 0.35 0.42 0.42 0.41 0.42 0.41 0.51 0.52 0.56 0.55 0.59 0.60 0.59 0.59 0.59 0.57
0.39 0.43 0.47 0.49 0.56 0.49 0.32 0.33 0.27 0.22 0.23 0.20 0.24 0.25 0.26 0.25 0.25 0.25 0.27 0.28 0.31 0.30 0.29 0.28 0.30 0.31 0.28 0.27 0.26 0.26 0.27 0.24 0.23 0.26 0.27 0.28 0.31 0.33 0.33 0.32 0.34 0.32 0.34 0.37 0.31 0.31 0.23 0.24 0.21 0.15 0.11 0.09 0.08 0.13 0.13 0.14 0.15 0.18 0.19 0.20 0.21 0.19 0.22 0.19 0.17 0.19 0.15 0.21 0.19 0.17 0.20 0.27 0.36 0.37 0.37 0.37 0.39 0.42 0.47 0.53 0.56 0.58 0.58 0.58 0.58 0.58 0.58 0.57
0.40 0.31 0.39 0.43 0.49 0.44 0.36 0.35 0.29 0.25 0.21 0.20 0.18 0.20 0.23 0.24 0.27 0.30 0.29 0.26 0.30 0.32 0.31 0.29 0.29 0.31 0.30 0.28 0.26 0.27 0.26 0.27 0.22 0.23 0.24 0.24 0.28 0.29 0.31 0.32 0.32 0.32 0.34 0.33 0.32 0.28 0.23 0.24 0.22 0.20 0.16 0.13 0.14 0.15 0.21 0.20 0.18 0.16 0.19 0.19 0.21 0.22 0.23 0.22 0.21 0.18 0.17 0.21 0.19 0.22 0.24 0.26 0.28 0.30 0.31 0.34 0.38 0.40 0.43 0.48 0.48 0.51 0.56 0.60 0.60 0.59 0.58 0.57
0.50 0.40 0.37 0.36 0.42 0.40 0.41 0.42 0.37 0.33 0.25 0.27 0.19 0.23 0.21 0.24 0.28 0.28 0.33 0.28 0.32 0.32 0.33 0.30 0.28 0.26 0.28 0.27 0.27 0.26 0.28 0.26 0.26 0.24 0.28 0.26 0.29 0.28 0.32 0.33 0.31 0.31 0.30 0.29 0.29 0.26 0.22 0.19 0.20 0.19 0.17 0.16 0.17 0.16 0.16 0.17 0.16 0.17 0.18 0.19 0.21 0.22 0.23 0.22 0.19 0.18 0.23 0.19 0.17 0.24 0.27 0.24 0.27 0.30 0.32 0.32 0.34 0.36 0.40 0.44 0.49 0.53 0.54 0.55 0.57 0.59 0.60 0.59
0.35 0.43 0.47 0.49 0.42 0.37 0.37 0.38 0.38 0.36 0.34 0.31 0.28 0.30 0.26 0.25 0.28 0.26 0.31 0.33 0.34 0.37 0.31 0.33 0.29 0.28 0.30 0.31 0.30 0.23 0.23 0.23 0.24 0.27 0.27 0.28 0.29 0.28 0.26 0.30 0.30 0.31 0.31 0.28 0.27 0.22 0.20 0.16 0.18 0.16 0.15 0.14 0.14 0.13 0.14 0.14 0.13 0.13 0.15 0.16 0.17 0.21 0.22 0.20 0.21 0.22 0.22 0.18 0.16 0.23 0.25 0.23 0.27 0.30 0.33 0.35 0.35 0.36 0.37 0.41 0.44 0.47 0.49 0.49 0.51 0.51 0.53 0.55
0.34 0.41 0.47 0.52 0.40 0.47 0.44 0.42 0.38 0.38 0.36 0.35 0.31 0.30 0.28 0.27 0.27 0.31 0.32 0.35 0.33 0.34 0.35 0.29 0.32 0.33 0.33 0.33 0.29 0.28 0.31 0.23 0.24 0.28 0.25 0.27 0.28 0.28 0.26 0.26 0.30 0.30 0.29 0.27 0.27 0.26 0.20 0.17 0.17 0.18 0.16 0.19 0.21 0.22 0.22 0.20 0.19 0.18 0.16 0.16 0.17 0.19 0.19 0.20 0.20 0.22 0.22 0.21 0.22 0.22 0.23 0.23 0.28 0.30 0.31 0.34 0.36 0.37 0.39 0.41 0.42 0.47 0.45 0.45 0.46 0.47 0.50 0.53
0.19 0.24 0.31 0.40 0.42 0.44 0.43 0.39 0.36 0.35 0.34 0.37 0.31 0.33 0.31 0.30 0.28 0.28 0.31 0.31 0.28 0.31 0.37 0.32 0.33 0.33 0.35 0.36 0.31 0.27 0.30 0.33 0.31 0.27 0.31 0.24 0.24 0.29 0.27 0.28 0.29 0.31 0.31 0.27 0.28 0.29 0.22 0.22 0.24 0.23 0.20 0.21 0.23 0.23 0.23 0.22 0.20 0.17 0.18 0.19 0.20 0.20 0.18 0.20 0.20 0.20 0.22 0.21 0.23 0.23 0.22 0.21 0.28 0.31 0.31 0.34 0.37 0.38 0.36 0.37 0.39 0.42 0.43 0.43 0.43 0.45 0.46 0.49
0.26 0.34 0.36 0.31 0.29 0.37 0.38 0.39 0.36 0.36 0.33 0.36 0.32 0.34 0.33 0.32 0.30 0.31 0.30 0.35 0.32 0.30 0.30 0.30 0.34 0.35 0.38 0.34 0.31 0.30 0.35 0.33 0.32 0.30 0.30 0.28 0.23 0.28 0.23 0.29 0.30 0.27 0.30 0.28 0.29 0.30 0.26 0.24 0.25 0.24 0.19 0.20 0.24 0.24 0.24 0.25 0.24 0.21 0.20 0.20 0.20 0.19 0.17 0.19 0.19 0.24 0.20 0.20 0.22 0.21 0.20 0.22 0.29 0.31 0.31 0.32 0.33 0.34 0.34 0.35 0.37 0.39 0.42 0.41 0.40 0.42 0.46 0.46
0.26 0.35 0.39 0.36 0.30 0.36 0.35 0.36 0.35 0.34 0.30 0.35 0.34 0.34 0.32 0.33 0.37 0.33 0.29 0.35 0.36 0.34 0.33 0.31 0.32 0.32 0.33 0.30 0.30 0.31 0.34 0.34 0.32 0.32 0.33 0.32 0.30 0.30 0.30 0.29 0.29 0.26 0.26 0.26 0.29 0.27 0.27 0.24 0.21 0.22 0.18 0.18 0.23 0.24 0.24 0.23 0.22 0.19 0.20 0.23 0.23 0.23 0.24 0.24 0.25 0.26 0.25 0.24 0.20 0.18 0.21 0.28 0.32 0.32 0.29 0.32 0.32 0.33 0.34 0.36 0.37 0.38 0.40 0.41 0.40 0.41 0.42 0.47
Wind_Speed
15 15 15 15 15 16 16 16 16 16 16 16 16 16 16 16 16 16 16 16 16 16 16 16 17 17 17 17 18 18 18 18 18 19 20 19 19 19 19 18 18 18 18 17 17 17 16 16 17 17 17 17 16 16 16 16 16 16 15 16 16 15 15 13 13 13 11 11 13 13 13 12 12 13 14 13 14 14 12 12 14 15 15 15 13 13 13 13
15 15 15 15 15 15 15 15 15 16 16 16 16 16 16 16 16 16 16 15 15 15 15 16 16 16 17 17 17 17 17 17 18 19 20 19 19 19 18 18 18 18 17 18 18 17 17 17 17 16 16 16 16 15 15 15 16 15 14 15 16 15 14 14 14 13 13 14 14 13 13 13 14 14 14 14 15 13 10 10 12 13 14 14 14 13 14 14
15 15 15 15 15 15 15 15 15 15 15 15 16 16 16 16 15 15 15 15 15 15 15 15 16 16 16 16 16 16 16 16 17 18 17 17 19 19 18 19 18 18 18 18 18 18 17 18 17 16 16 16 15 15 15 14 15 16 15 15 15 15 15 16 15 14 15 16 14 13 13 14 15 14 13 14 15 14 12 13 13 13 14 15 16 15 15 15
15 15 15 15 15 15 15 15 15 15 15 15 15 15 15 15 15 15 15 15 15 15 15 15 15 15 15 15 15 15 15 14 14 14 14 14 16 17 17 18 18 18 18 18 18 19 19 19 17 16 16 15 16 16 16 15 15 15 16 16 15 15 16 17 17 15 15 14 14 14 14 14 15 15 15 15 15 16 15 14 15 14 14 15 16 15 15 15
15 15 15 15 15 15 15 15 15 15 15 15 15 15 14 14 14 14 14 14 15 14 14 14 14 14 14 14 14 14 13 11 11 12 12 12 14 15 16 17 17 17 17 17 18 18 19 19 17 17 17 16 16 15 16 17 16 15 15 16 16 16 16 18 19 16 14 14 14 14 14 16 17 16 16 15 15 16 15 14 15 15 14 14 15 14 15 15
15 15 15 15 15 15 15 15 15 15 14 14 14 14 14 14 14 14 14 14 14 14 14 14 14 13 13 13 13 13 12 10 11 12 12 11 12 13 15 15 16 16 16 16 17 17 18 18 17 16 15 15 16 15 16 17 17 16 16 16 17 17 17 18 19 18 15 15 15 15 16 17 17 17 17 17 16 15 14 13 13 13 12 13 13 13 14 14
14 15 15 15 15 15 15 15 15 14 14 14 14 14 13 13 13 13 14 13 13 13 13 13 13 12 12 12 12 12 12 13 13 12 12 11 11 13 13 14 15 15 15 16 16 17 17 17 16 15 14 14 15 15 16 17 17 16 16 15 17 18 18 18 18 17 15 14 13 14 16 17 17 16 16 15 12 11 11 11 11 11 10 11 12 12 13 14
14 14 14 14 14 14 14 15 14 14 14 14 13 13 13 13 13 13 13 13 12 12 12 12 12 11 11 11 11 11 12 13 12 11 12 12 11 12 12 13 14 14 15 15 16 17 17 16 15 15 14 13 14 14 14 15 15 16 17 16 17 17 17 18 18 18 17 14 14 14 14 16 17 15 14 11 8 9 9 8 9 9 9 11 12 13 13 14
14 14 14 14 14 14 14 14 14 14 13 13 13 12 12 12 12 12 12 12 12 11 11 11 11 11 10 10 9 10 11 10 10 10 11 11 11 11 12 12 13 14 15 15 16 17 15 14 14 14 13 14 14 14 13 14 14 15 16 16 15 16 17 18 18 18 17 15 15 15 14 15 15 13 12 11 9 9 8 7 8 9 9 10 12 13 14 15
14 14 14 14 14 14 14 14 14 13 13 13 12 12 12 12 12 12 11 11 11 11 11 11 10 10 10 10 9 9 9 9 9 9 10 10 10 10 11 12 13 14 15 15 15 16 15 14 14 13 14 15 14 15 14 14 14 14 14 14 15 16 17 18 17 16 16 15 14 14 13 14 13 11 10 10 11 9 9 7 8 9 10 10 11 13 14 15
14 14 14 14 14 13 13 14 14 13 13 12 12 12 12 11 11 11 11 11 11 11 11 10 10 9 9 9 9 8 9 8 8 8 9 9 9 10 11 11 12 14 14 14 15 15 15 15 14 13 13 13 13 13 13 14 15 15 13 13 14 15 16 16 15 15 15 13 13 13 13 13 12 10 10 11 11 10 8 8 7 8 9 10 11 12 13 14
14 14 14 14 14 13 13 13 13 13 13 12 12 12 11 11 11 11 10 10 10 10 10 10 9 9 9 9 10 10 9 8 7 7 8 8 8 9 10 10 12 13 14 14 14 14 14 15 14 13 13 11 11 11 11 12 14 15 15 13 13 14 15 16 15 16 15 12 13 13 12 12 11 10 11 11 11 10 8 8 7 7 9 10 10 12 13 13
14 14 14 14 14 13 13 13 13 13 13 13 12 12 11 11 11 11 10 10 10 10 10 10 9 9 9 9 10 10 9 9 7 7 7 7 8 9 9 10 11 13 14 13 12 12 13 15 14 13 14 12 12 11 12 12 11 12 13 13 13 13 14 15 15 15 14 13 13 12 11 12 11 9 12 13 10 10 9 8 7 7 8 9 10 11 11 11
13 13 13 13 13 13 13 13 13 13 13 13 12 12 12 11 11 11 11 10 10 10 10 9 9 9 9 10 10 9 9 9 8 8 8 8 9 9 9 11 12 12 13 13 13 12 12 13 13 13 14 12 12 12 11 11 10 9 10 11 11 11 11 11 13 13 12 12 13 11 10 11 10 10 14 14 12 10 9 7 6 6 6 7 9 10 11 11
13 13 13 13 13 13 13 12 12 12 12 12 12 12 12 12 11 11 11 11 10 10 10 9 9 8 9 10 11 10 9 9 8 9 9 9 10 10 10 10 11 11 11 11 12 11 11 11 12 12 13 12 12 11 10 9 9 8 9 10 9 10 10 10 12 13 12 11 12 12 10 11 10 11 15 15 12 11 9 7 6 6 6 6 7 9 10 10
12 12 12 12 12 12 12 12 12 12 12 12 12 12 12 12 12 12 11 11 11 10 9 9 9 8 8 9 9 8 9 9 10 9 9 10 10 10 9 9 9 10 10 11 11 10 10 10 11 12 12 11 11 10 10 9 9 9 9 9 9 11 13 12 11 13 11 9 11 12 10 10 9 9 15 16 12 11 9 8 7 6 6 6 7 8 9 10
11 11 11 11 11 12 12 12 12 12 12 12 12 12 12 12 12 12 11 11 11 10 10 9 8 8 9 8 8 9 9 9 10 10 9 10 11 9 7 7 8 9 9 10 10 9 9 9 10 11 10 10 10 10 10 10 10 9 10 11 10 11 12 10 8 11 11 8 10 11 9 9 8 7 11 14 12 10 8 7 7 7 7 7 7 8 9 9
10 10 10 11 11 11 11 11 11 11 11 12 12 11 11 11 11 12 11 11 10 10 10 10 8 8 9 9 9 10 9 9 9 9 9 10 11 10 9 8 8 8 8 8 8 9 8 8 8 9 9 9 9 9 10 11 10 8 9 9 9 10 9 10 10 11 11 9 9 9 8 9 8 7 8 10 12 11 9 8 9 8 8 7 8 8 9 10
10 10 10 10 10 10 10 11 11 11 11 11 12 11 11 11 11 11 11 11 10 10 9 10 9 8 7 8 9 9 8 8 8 8 9 10 10 11 10 9 9 8 8 7 7 8 8 7 8 9 8 9 10 10 11 11 10 9 8 7 7 8 7 7 8 9 9 9 9 8 9 10 9 10 9 10 13 12 11 10 9 9 9 9 9 9 10 10
11 10 10 10 10 10 10 10 10 10 10 11 11 10 10 10 9 10 11 12 13 13 12 12 12 12 10 9 8 8 7 8 8 9 10 10 9 10 10 9 9 9 9 8 7 8 8 7 9 10 9 9 10 10 10 10 9 9 8 8 7 7 6 4 5 8 7 7 8 8 9 10 10 10 11 12 13 12 12 10 9 10 10 10 10 10 10 10
11 11 10 10 10 10 9 9 9 9 10 10 10 10 10 11 10 10 11 13 14 16 16 15 15 15 15 12 9 8 7 8 9 10 10 10 10 9 9 9 9 9 9 9 9 8 8 9 10 11 11 10 10 9 8 9 9 9 9 9 8 5 5 4 4 7 7 7 9 8 8 9 9 9 9 10 10 10 12 11 10 11 10 10 10 10 11 11
12 11 11 11 10 10 10 10 9 10 10 10 11 11 11 12 11 11 12 13 14 16 18 17 16 16 16 15 13 11 9 9 10 11 10 10 10 9 9 9 9 9 8 8 8 8 9 10 11 12 11 10 11 9 8 9 9 10 9 10 10 6 4 5 5 6 7 8 10 9 8 10 10 8 8 8 8 9 13 13 12 13 11 12 11 11 12 12
12 12 12 11 11 10 10 10 10 11 11 11 11 12 12 12 12 13 13 13 15 16 17 18 18 17 17 16 14 13 12 11 11 12 11 11 11 11 10 9 9 9 8 8 8 8 9 11 11 11 10 10 10 9 9 9 10 11 11 11 12 10 6 5 8 8 8 9 10 9 10 12 11 9 9 10 9 9 12 13 14 14 13 14 14 13 13 13
13 12 12 12 12 11 11 11 11 11 11 12 12 12 12 13 13 12 12 13 14 15 16 17 18 18 18 16 14 13 13 12 12 13 12 12 11 11 11 11 10 10 10 11 11 11 11 11 10 8 8 9 9 9 9 9 10 11 11 12 13 13 10 7 8 9 9 10 10 9 11 13 13 11 11 11 10 11 13 13 14 15 15 15 15 14 13 13
13 12 12 12 12 12 12 12 11 11 11 11 12 12 13 13 12 11 11 13 13 13 14 15 16 17 17 16 15 15 14 14 14 14 14 14 11 10 11 11 10 10 11 12 13 13 13 11 9 7 8 9 8 9 9 8 9 10 11 12 13 14 14 11 10 9 8 10 10 9 10 13 14 14 14 13 11 13 14 14 16 17 15 14 15 15 14 13
13 13 12 12 12 13 12 11 11 11 12 11 11 11 12 12 12 11 11 12 13 12 11 11 12 13 14 15 15 14 13 13 15 15 15 15 13 11 11 10 9 10 11 11 10 11 12 12 10 9 9 9 9 9 10 9 10 10 11 11 11 13 14 13 12 10 10 10 10 9 9 12 13 14 14 13 13 14 15 14 14 13 11 13 14 14 14 14
14 13 13 12 12 12 12 12 12 12 13 12 10 10 11 11 11 11 10 11 11 11 10 10 9 10 11 14 13 10 10 11 12 14 15 15 14 12 12 11 10 10 10 9 9 9 9 9 9 9 9 10 10 12 12 11 10 12 12 11 11 12 12 12 12 12 12 11 11 11 10 11 13 13 13 13 13 14 14 13 12 11 11 13 14 14 16 15
15 14 13 13 12 12 12 12 12 13 14 13 12 12 11 11 11 10 8 9 10 9 9 10 9 9 10 13 13 11 10 9 9 11 13 14 13 11 12 13 12 12 11 9 11 11 9 9 9 9 8 10 11 13 12 11 10 11 11 11 11 12 12 12 11 12 12 11 12 12 11 11 13 13 13 13 13 12 11 12 11 11 11 13 15 15 16 16
16 15 14 14 13 12 12 12 12 12 13 13 13 13 13 12 11 9 8 9 9 8 9 10 10 10 11 12 14 13 12 10 9 10 12 12 12 11 11 12 12 12 12 11 11 12 11 11 12 9 8 10 11 11 11 11 12 13 11 10 10 10 12 13 12 12 11 10 12 13 12 11 13 13 12 12 12 11 11 11 11 10 10 12 16 15 14 14
17 17 16 15 14 12 12 13 12 12 12 13 13 13 12 11 10 9 9 9 9 9 9 9 10 11 12 12 13 14 14 12 10 12 12 11 12 12 12 12 12 12 12 11 11 12 13 12 11 11 10 10 10 10 10 10 11 11 10 10 10 11 12 13 13 12 10 11 12 12 12 12 12 12 12 12 12 12 12 11 11 9 8 10 15 15 14 14
18 18 17 16 15 14 13 13 12 12 12 12 12 12 11 10 9 9 9 9 9 9 9 9 10 12 13 13 12 13 13 13 12 12 12 11 11 12 12 12 12 11 11 11 11 13 13 11 11 11 12 11 10 12 12 11 9 8 8 9 9 10 10 10 11 10 10 11 12 10 10 11 12 12 12 12 12 11 12 11 11 9 7 7 11 13 12 12
19 19 19 18 17 16 16 15 13 13 12 12 12 11 10 9 10 11 9 8 8 8 8 9 10 12 13 13 14 14 13 13 13 13 12 11 10 11 12 12 11 10 10 11 11 11 11 12 12 10 11 11 10 11 12 11 9 8 8 9 9 9 8 8 9 9 10 11 11 11 10 10 12 12 13 13 12 12 11 11 11 11 10 8 7 8 9 9
21 20 20 19 18 18 17 17 16 14 13 12 11 11 10 10 10 11 10 9 8 7 7 8 10 11 13 13 13 14 13 12 13 13 13 13 11 11 12 13 12 10 10 11 10 10 10 11 11 10 10 10 9 9 11 10 9 9 9 9 9 9 8 9 10 10 11 11 12 12 11 11 12 11 11 12 12 12 10 10 11 11 11 10 8 8 9 9
22 21 20 19 19 19 19 18 17 15 14 12 11 11 11 11 11 11 11 11 11 10 8 9 10 11 12 13 11 12 13 12 13 13 13 13 12 11 11 12 13 12 11 10 10 9 9 11 11 10 9 10 9 8 10 11 9 9 9 9 9 10 9 10 10 9 10 11 11 10 9 9 10 10 11 10 9 8 7 9 11 10 10 9 9 10 10 10
21 20 20 19 19 20 20 19 17 16 14 13 12 12 13 13 11 10 10 10 10 11 11 11 11 10 11 12 12 13 13 12 13 13 13 13 13 13 12 12 13 12 11 11 10 10 10 11 10 10 10 10 9 7 8 9 9 9 8 6 8 10 9 9 10 10 10 10 9 9 9 9 8 9 10 9 7 6 7 8 8 9 9 9 9 10 10 11
20 19 19 19 20 20 20 19 18 17 16 14 13 14 14 13 12 11 10 9 9 9 9 9 10 11 11 10 11 13 13 12 13 13 13 13 14 14 13 12 12 13 12 11 10 10 10 11 9 9 11 11 8 7 7 7 7 8 7 6 7 8 7 7 9 9 8 8 9 10 10 9 9 10 10 10 9 9 9 8 8 8 8 8 9 9 10 10
18 18 18 19 20 20 20 19 18 18 17 15 15 16 15 14 14 13 12 11 11 11 9 8 8 10 11 10 10 11 11 12 13 13 13 13 13 13 13 13 13 13 13 11 11 11 10 11 10 8 10 11 9 9 9 8 7 7 7 8 8 7 6 7 8 8 7 8 9 10 10 9 9 10 11 11 11 11 11 11 10 10 9 9 10 10 10 10
18 17 17 19 20 20 20 19 18 18 18 17 17 17 16 15 15 14 14 14 13 12 11 10 9 9 10 11 11 10 10 11 12 12 12 12 12 12 11 11 12 12 10 9 10 10 9 10 11 9 8 9 9 9 9 9 8 9 10 10 7 6 7 8 7 8 8 8 9 10 9 8 7 9 10 10 10 9 9 11 11 11 10 9 9 9 9 9
16 15 15 16 17 18 19 19 18 19 19 18 18 17 16 16 16 16 16 16 15 14 13 12 11 10 10 11 12 11 11 12 12 12 12 12 13 13 11 10 10 10 10 10 10 10 9 9 12 11 9 7 7 8 10 9 9 8 9 9 9 8 8 8 8 8 8 9 9 9 8 7 8 8 8 9 9 8 8 9 11 11 10 8 7 8 8 8
15 14 13 14 14 15 17 17 17 18 18 19 18 18 17 16 16 17 17 16 15 14 13 12 12 11 10 10 11 12 12 13 12 12 12 12 12 12 12 12 11 10 11 11 11 11 10 10 12 12 10 9 8 8 8 9 8 8 7 8 9 9 8 8 8 8 7 8 9 8 8 9 9 9 8 9 11 11 9 9 10 11 9 8 7 7 7 8
14 13 13 12 11 12 13 14 15 17 18 19 19 18 18 17 17 17 17 17 15 13 13 14 14 13 12 11 10 11 11 12 11 11 12 12 10 10 12 13 12 12 12 11 11 12 12 11 12 12 12 12 12 10 9 9 9 9 9 9 9 8 8 8 9 10 9 9 9 8 9 11 11 9 9 9 10 11 12 12 12 11 9 8 8 7 8 8
13 12 12 11 10 11 12 13 15 16 17 18 18 19 18 18 17 17 18 17 15 13 13 14 15 15 15 14 13 12 11 11 11 11 12 12 11 10 9 9 9 11 11 10 10 11 12 10 10 12 13 14 15 14 13 13 11 11 11 11 9 8 8 8 10 11 11 10 10 9 10 12 12 11 9 9 10 10 10 12 13 12 10 10 10 10 10 9
13 14 14 13 12 12 12 14 15 15 15 17 18 19 19 18 18 17 17 16 15 14 13 13 14 15 15 14 14 14 13 13 13 13 11 9 9 10 9 8 8 10 11 11 11 11 11 10 11 13 13 14 15 15 15 14 13 12 12 11 11 11 10 10 11 12 11 11 10 9 10 11 12 11 10 10 10 9 8 10 12 12 12 12 12 12 12 11
14 15 14 14 14 13 13 13 15 15 15 15 17 18 19 19 19 19 18 16 16 15 14 13 13 14 14 14 14 14 13 13 13 14 12 10 10 10 11 10 9 11 13 13 13 13 12 11 12 12 12 12 12 12 11 11 10 11 11 11 12 12 11 11 12 12 12 12 11 9 10 11 11 10 9 9 9 8 8 9 10 12 12 12 13 13 13 13
14 14 14 14 15 15 14 13 14 15 14 15 15 16 17 17 18 19 18 17 16 15 15 15 13 13 13 14 14 14 14 14 14 14 14 12 12 12 12 12 11 12 14 12 12 13 13 13 12 12 12 13 12 10 9 10 11 11 11 11 11 12 12 12 12 11 12 13 12 11 11 12 12 10 10 10 8 8 9 9 10 12 12 12 13 13 13 13
13 13 13 14 14 14 14 13 14 14 15 15 15 15 16 16 16 17 17 16 15 15 16 17 15 15 14 13 13 14 14 15 14 14 14 13 13 13 13 13 12 13 14 13 12 14 15 15 15 15 15 16 16 14 13 13 13 13 13 13 13 13 12 11 12 13 13 13 14 13 12 12 12 11 10 11 10 9 10 10 11 12 13 13 13 13 13 13
12 13 12 12 13 13 12 12 12 13 13 13 13 13 14 14 14 14 15 15 13 14 16 16 15 15 14 14 14 15 16 16 15 14 14 13 13 13 12 12 12 13 14 14 15 15 15 17 18 18 19 19 19 19 18 17 17 17 17 17 17 16 14 14 15 16 15 14 15 15 12 12 14 13 11 11 11 11 11 11 12 13 14 15 15 15 15 15
11 12 12 11 13 13 13 12 13 13 12 11 12 12 11 12 12 12 12 14 13 13 15 16 14 14 14 15 15 16 17 17 17 16 16 14 13 14 13 13 14 15 15 15 16 16 16 18 19 18 20 20 20 20 20 19 20 20 19 20 19 18 17 17 17 17 15 15 18 18 15 16 17 15 13 13 13 13 13 14 15 16 17 18 19 19 19 18
11 12 12 12 13 15 15 13 13 14 12 11 11 11 11 11 12 12 12 13 13 13 14 15 14 14 14 14 14 15 15 16 17 18 18 17 16 15 15 14 16 16 16 16 17 16 16 17 18 18 19 19 19 20 20 20 21 21 22 21 19 18 18 19 19 19 18 18 19 18 17 19 19 17 16 16 15 14 15 15 15 17 18 20 21 22 22 20
10 11 12 12 13 14 14 13 12 13 12 12 12 12 11 11 11 13 13 12 14 14 15 15 15 15 13 12 13 14 15 15 16 17 18 18 18 17 16 16 17 18 17 16 17 17 16 17 17 17 18 19 19 20 20 20 21 22 22 22 20 20 21 21 21 21 20 21 20 18 17 21 21 19 18 17 17 16 17 17 17 18 19 19 20 23 24 23
9 10 11 11 11 12 12 12 12 12 12 12 12 12 11 10 9 11 11 10 11 13 13 15 16 15 14 12 13 15 16 16 17 18 18 19 19 20 19 19 19 19 19 18 18 18 18 18 18 17 18 20 19 19 19 20 20 21 22 22 21 21 21 21 21 21 21 21 21 19 19 22 22 20 20 20 19 19 19 19 19 19 19 19 19 21 24 26
8 8 8 8 10 10 11 11 11 11 12 12 12 12 12 11 10 11 13 12 12 12 12 12 14 16 16 15 16 17 18 19 20 20 20 20 21 21 21 21 21 20 20 20 20 20 19 19 19 18 18 20 19 18 19 19 19 20 20 19 19 20 19 19 20 20 20 20 20 20 20 22 21 20 20 21 20 20 20 20 20 20 20 20 20 21 22 24
Wind_Direction
277 276 276 275 274 273 273 272 271 271 272 272 272 271 271 272 273 274 274 274 274 274 273 273 273 273 272 272 272 272 273 270 267 263 258 255 248 246 248 248 248 244 244 247 247 245 244 244 243 244 248 249 248 248 251 249 246 248 248 251 255 253 252 251 249 248 249 268 274 271 266 254 258 267 271 273 272 274 271 265 260 256 252 246 239 224 219 223
277 277 276 275 274 273 273 272 272 271 271 272 272 271 271 271 272 273 274 274 274 274 273 273 273 273 273 273 273 273 273 269 266 261 258 253 246 245 244 244 245 242 243 245 242 239 239 240 239 241 244 246 246 244 245 246 244 244 246 249 251 249 249 250 248 250 261 271 272 269 268 261 262 270 273 271 272 273 270 267 259 251 249 241 229 223 224 225
276 276 276 275 274 274 273 272 272 271 271 272 272 271 271 270 271 273 273 274 273 274 274 274 273 273 273 272 273 274 272 269 265 260 258 251 244 244 243 242 242 241 242 241 238 235 237 239 238 239 241 244 244 244 244 244 245 244 245 249 249 249 250 249 248 261 272 270 269 268 270 270 266 265 267 269 272 276 270 263 258 248 242 237 231 226 225 226
276 275 275 275 274 273 272 272 272 272 272 272 272 272 271 270 270 272 273 274 274 274 274 274 274 273 272 272 273 273 270 268 263 256 256 250 241 241 241 240 240 240 240 239 238 237 240 244 244 243 243 245 243 244 245 243 246 245 243 247 250 251 252 249 250 267 277 271 270 268 267 269 269 267 267 270 272 276 270 251 245 242 234 233 230 225 224 226
277 276 275 274 273 272 271 271 271 271 271 272 272 272 271 270 270 271 273 275 274 273 274 274 274 273 272 272 272 270 268 264 259 253 254 250 242 239 239 239 240 238 237 238 238 238 243 244 244 244 244 245 244 245 246 242 244 246 247 248 249 251 251 251 254 264 273 273 271 266 265 266 267 268 267 269 268 273 268 243 235 235 230 229 226 223 222 223
278 277 276 275 274 272 270 270 270 270 271 272 272 271 271 270 271 272 274 275 274 274 274 274 274 273 273 273 270 267 263 258 259 256 252 249 243 240 239 239 238 236 235 235 234 237 241 241 241 241 241 244 244 245 247 244 241 246 252 250 250 251 251 255 259 266 271 272 267 260 266 270 268 265 266 271 269 268 259 238 233 233 230 230 225 221 219 220
279 278 276 276 274 272 271 270 269 270 271 272 271 270 270 270 271 272 273 274 274 274 274 275 275 274 275 273 267 263 260 259 262 256 249 249 246 242 240 238 235 233 231 230 231 233 238 241 238 237 240 241 242 243 247 247 243 245 251 251 251 253 255 257 259 266 271 269 265 264 269 271 268 264 268 272 264 255 245 230 230 235 236 236 230 225 223 223
279 279 278 277 275 273 271 269 269 269 270 271 271 270 269 270 271 272 273 272 272 273 273 274 274 275 277 273 266 264 262 260 258 251 248 249 247 243 238 234 232 228 226 227 229 233 237 240 234 233 238 238 240 240 244 250 248 247 250 253 255 256 258 258 258 263 267 266 265 268 268 267 266 263 266 261 241 237 233 220 223 233 239 237 233 227 224 226
280 279 278 277 276 274 271 269 269 268 269 269 270 270 269 270 271 271 271 270 271 272 272 273 273 275 274 270 267 266 264 260 253 248 250 250 246 239 234 232 228 223 222 225 230 233 236 236 230 230 238 240 243 244 248 254 252 251 251 253 254 256 259 258 259 261 262 263 261 262 263 265 263 259 259 244 227 229 222 215 221 230 235 232 231 227 225 226
281 279 278 277 276 274 272 270 268 267 268 268 270 269 269 269 270 271 269 269 269 269 271 270 272 273 270 265 262 263 265 262 253 251 252 249 241 233 230 229 223 219 221 225 229 231 233 234 232 236 242 243 246 249 253 253 253 256 255 253 254 257 257 254 257 259 260 261 255 253 261 263 255 252 254 233 219 219 213 219 227 230 234 234 232 228 229 229
282 279 277 275 274 274 272 270 267 266 267 267 268 268 268 268 269 269 268 268 267 268 268 267 269 269 266 264 258 258 265 262 251 250 252 244 235 228 226 225 219 217 220 226 229 232 233 235 240 243 242 245 250 249 250 252 255 257 257 257 258 260 258 254 257 257 257 257 246 246 259 259 248 245 242 222 214 212 212 224 229 231 236 240 238 233 234 233
282 280 277 274 273 272 271 270 267 265 265 265 266 266 267 267 267 268 267 268 266 265 265 265 265 263 265 263 255 255 263 265 252 244 245 238 230 226 222 221 220 219 222 227 232 237 237 237 245 245 240 247 246 241 253 265 264 257 255 257 260 262 259 254 254 253 253 253 243 245 258 255 249 244 223 211 214 214 218 226 227 235 239 242 242 237 236 235
282 279 277 274 272 271 270 269 267 265 263 263 263 263 265 266 267 267 266 266 264 263 263 264 262 262 265 259 255 257 259 260 248 237 239 236 229 225 223 222 223 224 226 232 239 245 243 239 242 241 242 247 240 241 259 269 267 257 252 254 259 264 261 250 245 246 247 247 240 238 251 252 251 235 208 208 213 213 224 230 233 243 240 239 240 237 234 233
283 279 277 274 272 270 268 268 266 265 263 263 262 262 264 265 266 265 264 264 263 262 261 262 261 262 261 256 261 261 253 252 243 238 237 231 228 225 227 228 227 229 230 234 240 247 247 240 239 237 240 243 240 247 258 259 257 255 256 256 253 255 260 247 237 238 240 243 232 223 242 251 249 233 213 212 209 209 225 226 226 234 231 235 234 231 231 230
284 280 277 274 272 270 268 266 265 265 264 264 263 262 262 263 264 263 262 262 261 261 259 260 258 260 265 262 265 259 245 246 244 241 234 227 228 226 225 228 231 234 233 231 234 245 247 239 238 234 233 239 240 244 252 253 249 247 253 258 248 242 255 257 239 229 234 246 222 212 245 251 248 240 220 216 213 210 217 214 214 217 219 229 226 224 224 225
287 282 278 275 273 270 268 266 265 264 265 265 264 263 262 261 261 260 261 259 258 259 256 258 255 257 266 263 266 258 243 245 243 236 229 225 224 223 223 225 228 230 231 229 229 242 245 235 236 230 229 237 235 238 250 253 252 247 243 251 250 244 257 267 245 221 227 245 215 215 253 247 246 244 216 214 218 212 213 220 225 218 217 225 225 225 219 217
291 285 280 277 274 271 268 266 265 264 264 264 263 262 261 261 260 260 260 255 253 254 252 255 257 258 261 262 269 261 245 245 240 227 224 226 224 223 224 223 223 223 226 228 228 235 238 229 226 225 229 235 231 235 246 244 248 254 246 247 256 259 260 254 236 222 225 232 213 224 249 234 240 246 213 211 211 210 221 228 227 219 219 226 228 228 219 215
295 288 284 280 276 273 269 266 265 264 262 261 260 259 260 262 262 261 259 252 250 253 253 251 253 257 258 258 260 254 242 237 233 224 220 227 229 228 228 223 222 221 221 228 229 226 228 225 221 225 234 234 229 227 232 237 246 260 258 248 259 277 260 229 230 231 222 218 215 226 237 229 234 230 213 209 204 214 235 232 226 223 217 220 226 227 224 220
299 292 287 283 279 275 271 268 264 261 260 259 257 257 258 261 261 259 255 250 247 248 251 244 234 241 256 258 253 247 239 227 226 224 220 224 228 229 231 227 226 225 221 225 224 218 220 226 227 229 230 230 232 230 234 245 251 259 263 248 258 285 264 225 225 221 212 215 218 222 230 235 232 225 228 227 217 224 235 230 226 225 221 221 226 227 224 220
303 294 288 285 281 277 273 269 264 261 258 255 255 255 257 258 259 258 252 249 248 247 252 247 234 239 258 271 258 237 228 226 232 230 223 224 222 225 230 226 227 230 227 228 227 223 222 224 228 227 228 234 236 236 243 253 254 255 257 249 257 284 274 233 203 209 217 222 228 236 237 238 237 240 248 239 229 230 230 229 226 224 226 223 222 222 220 221
306 296 289 285 281 277 272 268 265 262 258 253 253 253 256 258 259 263 258 252 251 248 250 252 245 243 252 262 254 229 225 237 239 232 226 225 222 224 225 221 229 235 232 232 234 234 228 228 233 232 234 239 237 238 246 253 258 257 254 249 251 269 271 243 207 222 234 229 240 250 242 239 242 254 258 237 233 236 226 225 221 216 221 222 219 219 221 225
306 298 290 283 279 274 269 267 263 262 260 254 251 252 258 261 262 270 268 261 258 252 248 250 251 247 247 253 249 235 237 241 237 233 226 220 221 223 219 217 228 232 229 231 236 237 233 237 242 239 236 238 242 248 253 253 256 253 250 246 242 243 251 249 242 241 241 237 246 253 247 246 246 250 252 234 233 231 219 221 222 217 221 229 229 225 224 225
305 300 293 283 278 273 268 267 263 260 257 252 250 253 259 265 270 275 272 265 263 258 250 246 247 246 245 249 243 232 239 240 236 233 223 218 222 221 220 222 226 230 231 230 230 231 233 242 247 242 236 236 244 254 259 259 257 251 243 237 236 237 241 255 258 252 248 246 247 255 256 251 247 247 250 243 235 228 222 223 226 228 232 236 234 226 222 222
302 301 295 285 277 273 270 269 265 260 257 254 255 257 262 269 273 277 273 265 262 260 254 247 244 244 243 245 239 233 241 244 239 231 219 218 222 220 225 230 232 238 239 233 233 236 240 247 249 242 231 235 247 257 261 260 257 251 237 230 233 238 242 249 256 255 260 263 256 255 259 253 244 245 253 254 242 236 234 228 230 241 245 242 235 228 224 223
299 299 296 286 277 273 271 269 262 258 256 255 260 267 270 271 273 278 276 268 262 259 255 250 245 243 240 239 237 236 242 246 241 232 219 216 223 226 227 231 236 241 242 240 240 242 245 248 244 239 239 244 250 253 252 249 252 253 240 232 232 238 246 248 251 256 264 271 263 249 252 254 247 246 254 258 251 245 243 239 240 246 245 235 230 230 229 226
298 297 296 288 279 273 270 263 258 258 257 255 265 274 272 270 275 281 276 268 266 259 249 246 242 239 236 231 231 235 242 246 239 230 219 216 227 234 229 231 235 235 241 249 252 248 247 247 240 239 249 255 254 255 255 248 248 249 243 240 238 241 251 252 252 257 256 259 258 243 239 251 253 250 251 253 255 253 248 243 240 238 230 221 223 228 226 224
295 294 294 290 281 272 265 260 259 261 259 258 270 275 268 271 280 281 272 267 267 256 243 242 236 234 234 225 221 227 237 241 234 226 218 218 229 234 231 235 236 236 245 256 261 253 244 246 245 243 250 256 255 256 255 246 243 246 244 246 249 249 253 257 258 257 253 254 258 249 237 246 254 253 252 253 258 260 248 236 232 228 219 216 222 226 224 225
290 290 289 288 281 270 263 263 264 262 257 259 272 274 269 275 278 272 266 262 264 257 244 239 232 234 235 221 217 224 232 237 236 225 213 213 225 229 227 233 235 243 253 254 252 245 235 240 244 244 251 257 257 253 246 238 240 246 243 242 249 252 253 259 262 258 254 253 258 255 242 247 255 254 256 257 258 258 240 229 231 234 230 222 219 222 224 228
286 285 283 283 279 268 261 261 260 259 258 263 272 274 271 272 268 261 259 257 259 261 248 237 232 232 232 224 222 228 232 239 241 224 206 209 224 227 227 234 239 251 259 252 243 240 240 243 244 248 254 257 257 247 241 243 244 244 242 243 250 256 256 255 255 257 257 250 252 254 249 252 259 257 255 255 254 247 233 233 236 239 246 232 220 221 224 225
283 281 279 278 273 264 260 258 255 260 268 270 271 272 270 264 257 254 255 255 258 261 248 239 237 231 228 228 228 228 232 240 236 222 215 222 231 231 234 239 242 251 258 255 250 247 246 245 247 251 252 256 257 242 242 255 250 240 242 252 259 260 257 250 246 248 253 252 251 251 253 257 258 256 252 248 247 239 232 239 241 238 250 231 216 219 222 222
280 278 275 272 267 262 259 255 255 263 271 272 269 269 265 257 248 243 248 257 263 261 249 239 237 232 228 229 230 227 230 235 230 222 226 233 234 232 237 244 244 249 257 258 261 259 251 248 254 255 251 255 256 246 250 260 253 241 244 254 260 263 259 251 247 243 243 251 251 253 262 261 255 254 252 247 244 236 232 235 233 226 224 211 205 211 217 225
279 276 272 266 262 260 256 253 258 265 268 269 268 262 255 251 246 240 245 261 265 261 253 243 239 235 228 229 233 230 228 231 229 227 228 229 230 231 233 237 239 247 254 253 258 263 256 251 254 256 253 251 249 247 252 258 252 242 244 246 247 254 258 253 250 245 243 249 253 258 264 259 253 253 252 251 245 236 232 229 222 214 207 204 197 197 205 218
278 275 270 262 258 257 254 253 258 262 264 267 263 254 246 245 246 244 245 252 252 254 258 251 247 241 229 226 232 231 227 226 225 227 229 226 229 234 233 232 232 236 242 246 256 265 264 262 257 256 254 245 242 246 243 246 248 240 240 240 235 239 250 252 252 252 251 256 262 261 256 255 258 255 251 255 249 237 229 218 211 209 209 212 207 200 207 220
278 273 267 260 256 254 253 252 253 256 260 262 256 247 241 241 246 247 247 249 248 251 255 252 255 253 235 225 228 229 227 226 223 225 229 230 232 233 231 231 233 233 235 241 252 255 258 265 257 253 250 235 237 245 231 232 245 246 243 242 238 236 240 244 246 244 245 256 266 258 245 246 252 250 247 248 242 226 217 212 211 215 216 214 216 217 223 230
279 271 263 259 256 252 250 248 247 248 252 255 249 241 238 242 245 244 247 248 246 256 261 251 250 255 242 230 230 230 226 227 229 229 231 233 233 232 231 234 236 235 233 237 246 248 250 255 247 241 240 230 232 238 225 229 248 254 250 249 247 241 236 238 239 237 238 250 259 249 244 245 243 248 247 237 225 210 208 214 214 219 218 214 222 229 231 235
279 270 263 258 255 251 247 244 243 241 243 245 245 242 239 242 242 238 243 246 248 269 276 255 244 246 243 237 235 233 226 223 229 233 234 232 231 231 231 233 233 232 231 234 242 246 244 249 249 239 232 226 225 231 228 228 242 252 249 245 249 242 232 239 247 247 244 247 251 246 248 253 249 252 251 238 232 227 224 225 223 222 223 223 230 234 235 238
279 272 264 258 254 249 243 240 238 236 237 239 241 243 242 242 242 241 246 253 259 271 270 255 249 248 244 240 237 235 228 224 227 231 232 233 235 238 236 235 233 230 231 232 238 245 242 246 253 243 230 231 236 244 249 244 242 248 246 248 260 260 249 247 248 253 251 247 252 248 244 247 247 251 257 250 239 233 232 232 229 228 230 233 236 236 238 243
278 274 266 259 253 246 240 236 234 232 234 238 241 244 245 245 246 248 251 254 262 269 260 248 246 244 243 242 240 236 229 226 229 230 231 231 235 239 240 241 233 225 225 223 229 241 245 246 248 241 236 241 241 243 251 256 253 245 243 250 259 260 257 254 247 248 250 249 255 256 249 246 246 252 258 251 237 233 236 234 229 230 232 232 233 234 238 243
275 273 267 261 252 243 236 231 230 233 236 240 242 244 246 247 247 248 249 250 257 265 258 247 246 244 243 242 240 240 236 231 230 233 237 237 237 238 235 234 230 226 227 225 228 237 239 239 241 241 244 249 248 244 241 251 262 255 250 256 254 247 248 250 246 244 243 245 253 259 260 255 252 256 257 242 227 225 235 239 236 232 231 230 229 234 237 236
272 266 264 264 254 239 230 226 230 237 240 242 243 245 247 249 248 246 247 252 256 257 249 244 248 248 251 250 241 240 241 235 231 235 238 237 239 240 235 231 232 232 229 228 233 241 242 240 240 244 249 247 249 251 241 241 252 254 256 261 258 256 254 253 258 258 249 247 249 252 257 257 253 255 256 244 231 225 228 243 245 236 230 229 229 232 233 231
269 260 259 261 244 226 221 227 236 242 244 244 244 246 247 248 250 249 251 257 256 251 248 247 248 248 251 254 249 245 242 234 231 236 238 236 235 240 239 234 233 231 229 231 237 240 241 241 241 245 249 246 247 255 258 251 248 250 253 250 248 255 255 253 263 265 257 250 248 247 252 255 253 253 256 255 249 240 232 236 242 239 231 229 229 232 233 233
263 253 254 250 231 223 227 237 244 244 245 246 244 246 247 247 248 247 249 253 252 249 251 248 246 247 249 249 248 250 246 237 234 237 240 240 235 234 238 237 229 224 223 228 235 237 237 238 243 248 248 248 251 258 262 261 263 263 254 243 244 253 253 248 254 259 259 254 250 250 254 256 255 255 255 258 261 256 240 232 236 240 238 234 232 235 239 243
260 254 254 247 234 234 239 245 250 248 247 248 246 246 247 246 246 246 245 248 248 248 250 248 246 247 248 246 244 245 246 245 243 241 241 240 230 225 233 238 233 225 225 231 240 245 244 243 249 254 254 255 259 262 262 262 268 269 258 247 246 250 250 248 250 253 255 254 249 251 258 259 259 260 256 253 257 255 243 231 230 235 238 235 234 236 240 246
262 254 251 246 237 237 242 246 249 249 248 248 246 246 247 246 245 245 245 246 246 245 247 248 248 246 246 244 242 244 245 243 244 243 240 238 235 230 229 232 233 232 235 239 242 245 248 248 249 252 258 263 264 264 263 262 261 259 259 255 248 249 258 262 263 263 259 257 253 252 258 258 259 264 261 258 262 260 250 240 234 236 238 237 238 240 242 247
260 250 247 246 239 237 244 248 248 249 249 249 249 249 249 248 246 244 246 246 244 243 244 246 248 245 244 245 245 247 245 242 243 245 241 241 245 242 234 230 232 236 240 244 246 245 246 247 245 245 248 253 253 253 258 264 261 257 262 265 257 257 263 262 263 265 261 263 263 255 253 255 259 268 269 262 263 261 254 249 246 246 244 240 242 244 247 251
254 247 248 249 244 240 246 253 252 250 248 249 251 251 248 248 246 245 246 245 243 245 247 249 249 244 244 248 247 247 247 246 245 246 244 245 250 249 238 231 233 237 242 247 250 250 249 250 250 247 246 248 251 255 261 267 265 260 264 270 267 264 264 262 263 261 256 263 267 255 246 248 255 265 271 267 262 258 254 250 247 247 244 241 244 247 250 254
253 247 248 248 245 242 245 251 250 248 249 248 248 249 249 249 246 244 242 240 243 246 246 248 249 242 244 252 250 246 247 247 248 248 246 246 250 249 239 234 239 243 245 248 249 250 253 255 255 253 253 255 258 262 267 267 265 262 263 266 267 267 269 268 264 260 256 258 261 256 250 251 256 260 267 268 264 259 256 251 246 243 242 245 248 250 251 253
256 251 251 249 244 241 244 249 248 248 253 252 246 247 252 251 247 243 240 240 243 244 241 246 249 247 251 255 251 249 248 247 249 250 245 243 248 250 247 247 249 249 251 256 254 252 252 254 254 256 258 260 261 263 264 263 262 262 262 262 265 268 271 268 262 259 258 255 254 256 258 259 260 261 260 262 262 259 258 257 253 248 246 249 252 253 253 253
261 254 256 256 250 245 248 255 253 248 251 252 247 249 252 250 246 244 242 243 246 245 240 243 249 252 256 254 248 251 252 247 248 248 245 244 246 249 251 253 254 254 257 261 260 255 253 255 257 257 259 262 263 263 265 265 264 264 263 263 263 265 267 266 262 260 259 258 257 259 260 261 261 260 258 259 263 265 267 269 267 261 257 254 253 254 252 250
265 256 258 260 255 249 252 257 251 243 245 249 247 249 252 253 250 245 243 245 248 246 242 242 247 251 253 252 248 249 251 248 248 249 249 247 247 249 251 252 256 260 259 258 261 260 255 255 258 259 262 264 265 265 267 267 266 266 265 265 265 265 266 266 265 264 263 263 264 264 264 264 264 263 262 263 266 268 270 271 271 270 268 263 259 258 254 250
270 256 258 256 249 248 253 254 246 239 242 247 247 248 251 257 258 245 239 245 249 248 246 245 248 249 249 254 255 253 254 255 254 255 255 252 251 252 253 254 257 259 258 258 261 262 258 258 260 262 263 264 264 266 268 269 270 269 268 266 265 265 265 263 263 263 262 262 265 266 266 267 267 266 265 265 265 265 266 267 266 268 271 270 269 269 264 257
285 262 261 252 240 244 249 247 244 241 243 248 251 251 252 258 262 248 240 246 252 255 255 253 252 250 249 255 259 259 262 263 261 261 259 256 256 256 256 257 258 257 257 259 260 260 259 260 261 261 261 262 263 265 269 273 273 269 267 266 265 264 263 264 265 264 261 259 261 261 262 265 268 268 266 264 262 261 264 265 263 264 269 271 272 274 272 265